Flag for France Weather past 2 weeks in Strasbourg, France

Now
63 °F

Mostly cloudy.


Feels Like: 63 °F
Forecast: 58 / 78 °F
Wind: 6 mph from South

Location: Strasbourg Airport

Current Time: Jul 30, 2014 at 5:48:39 AM

Latest Report: Jul 30, 2014 at 5:00 AM


Visibility: N/A

Pressure: 29.80 "Hg

Humidity: 100%

Dew point: 63 °F

Location of StrasbourgLocation

Historic Weather in Strasbourg — Graph

°F

Strasbourg temperature yesterday

Maximum temperature yesterday: 66 °F (at 4:00 PM)
Minimum temperature yesterday: 61 °F (at 1:30 AM)
Average temperature yesterday: 63 °F

Past Weeks' High & Low Weather Summary

 TemperatureHumidityPressure
High93 °F (Jul 19, 5:30 PM)100% (Jul 21, 1:30 AM)30.18 "Hg (Jul 21, 1:30 AM)
Low32 °F (Jul 26, 8:30 AM)29% (Jul 18, 4:00 PM)29.80 "Hg (Jul 19, 11:30 PM)
Average71 °F74%29.96 "Hg
* Reported Jul 15 4:00 AM — Jul 30 4:30 AM, Strasbourg, Weather by CustomWeather, © 2014

Note: Actual official high and low records may vary slightly from our data, if they occured in-between our weather recording intervals... More about our weather records

Advertising

Strasbourg weather history for previous 24 hours

 ConditionsComfort  
Time TempWeatherWind HumidityBarometerVisibility
4:30 AM
Jul 30
63 °FLow clouds.6 mph100%29.80 "HgN/A
4:00 AM63 °FPassing clouds.6 mph100%29.80 "HgN/A
3:30 AM64 °FPassing clouds.6 mph94%29.80 "HgN/A
3:00 AM64 °FMostly cloudy.3 mph94%29.80 "HgN/A
2:30 AM64 °FLow clouds.6 mph94%29.80 "HgN/A
2:00 AM64 °FLow clouds.7 mph94%29.80 "HgN/A
1:30 AM64 °FMostly cloudy.7 mph94%29.80 "HgN/A
1:00 AM64 °FPassing clouds.6 mph94%29.80 "HgN/A
12:30 AM64 °FPassing clouds.7 mph94%29.80 "HgN/A
12:00 AM64 °FMostly cloudy.6 mph94%29.80 "HgN/A
11:30 PM
Jul 29
64 °FPassing clouds.5 mph94%29.80 "HgN/A
11:00 PM64 °FPassing clouds.6 mph94%29.80 "HgN/A
10:30 PM64 °FPartly cloudy.6 mph94%29.80 "HgN/A
10:00 PM64 °FHeavy rain. Fog.5 mph94%29.80 "Hg1 mi
9:30 PM64 °FMostly cloudy.6 mph94%29.80 "HgN/A
9:00 PM64 °FMostly cloudy.6 mph94%29.80 "HgN/A
8:30 PM64 °FMostly cloudy.6 mph94%29.80 "HgN/A
8:00 PM64 °FPartly sunny.6 mph94%29.80 "HgN/A
7:30 PM64 °FBroken clouds.6 mph94%29.80 "HgN/A
7:00 PM66 °FCloudy.7 mph88%29.80 "HgN/A
6:30 PM66 °FDrizzle. Mostly cloudy.6 mph88%29.80 "HgN/A
6:00 PM66 °FDrizzle. More clouds than sun.7 mph88%29.80 "HgN/A
5:30 PM66 °FMore clouds than sun.6 mph88%29.80 "HgN/A
5:00 PM66 °FMostly cloudy.6 mph88%29.80 "HgN/A
4:30 PM66 °FDrizzle. Mostly cloudy.6 mph94%29.80 "HgN/A
4:00 PM66 °FLow clouds.6 mph94%29.80 "HgN/A
3:30 PM64 °FDrizzle. More clouds than sun.5 mph94%29.80 "HgN/A
3:00 PM64 °FLight rain. Overcast.3 mph94%29.80 "HgN/A
2:30 PM64 °FMore clouds than sun.5 mph88%29.80 "HgN/A
2:00 PM64 °FCloudy.5 mph94%29.80 "HgN/A
1:30 PM64 °FCloudy.3 mph94%29.83 "HgN/A
1:00 PM63 °FCloudy.3 mph94%29.83 "HgN/A
12:30 PM63 °FLight rain. Low clouds.3 mph94%29.83 "Hg6 mi
12:00 PM63 °FLight rain. Partly sunny.5 mph94%29.83 "HgN/A
11:30 AM63 °FLight rain. Partly sunny.3 mph94%29.83 "HgN/A
11:00 AM63 °FMore clouds than sun.5 mph94%29.83 "HgN/A
10:30 AM63 °FMore clouds than sun.6 mph94%29.80 "HgN/A
10:00 AM63 °FLow clouds.5 mph94%29.80 "HgN/A
9:30 AM63 °FMore clouds than sun.3 mph94%29.83 "HgN/A
9:00 AM63 °FMore clouds than sun.5 mph94%29.83 "HgN/A
8:30 AM61 °FMore clouds than sun.5 mph100%29.80 "HgN/A
8:00 AM61 °FLow clouds.3 mph100%29.80 "HgN/A
7:30 AM61 °FMostly cloudy.3 mph100%29.80 "HgN/A
7:00 AM61 °FMostly cloudy.2 mph100%29.80 "HgN/A
6:30 AM61 °FDrizzle. Mostly cloudy.3 mph94%29.80 "Hg5 mi
6:00 AM61 °FLight rain. Fog.3 mph94%29.83 "Hg2 mi
5:30 AM61 °FLight rain. Fog.3 mph94%29.83 "Hg2 mi
Weather by CustomWeather, © 2014

See weather overviewHow to use our weather pages